Location: ??????????
(54.7560°N, 39.1389°E)
Time: 13:56:40
(UTC+00:00)

Cosmos 1515 Rocket - Pass Details

Date: 19 May 2025
Orbit: 601 x 623 km, 82.5° (Epoch: 20 June)

Event Time Altitude Azimuth Distance (km) Brightness Sun altitude
Exits shadow 23:14:59 15° 224° (SW) 1,646 5.1 -11.3°
Maximum altitude 23:18:14 40° 290° (WNW) 908 4.3 -11.1°
Drops below altitude 10° 23:22:24 10° 0° (N) 1,991 7.2 -10.8°
Sets 23:24:45 0° 8° (N) 2,905 8.5 -10.6°
